LEMUR-2-JENNIFERSONG (47525 NORAD) Tracking and Keplerian Element Data
This shows tracking and keplerian element data for the satellite.
Feedback or suggestion? Click here.
Element | Value |
Catalog | 47525 |
Name | LEMUR-2-JENNIFERSONG |
Epoch Orbit | 1199 |
Epoch Day | 101.92818039 |
Epoch Year | 2021 |
RAAN | 164.3199 |
Inclination | 97.4961 |
Eccentricity | 0.0010846 |
Argument of Perigee | 340.5045 |
Mean Anonmoly | 19.577 |
Mean Motion | 15.1282815 |
Decay Rate | 1.274E-05 |
L1 | 1 47525U 21006DR 21101.92818039 .00001274 00000-0 76141-4 0 9994 |
L2 | 2 47525 97.4961 164.3199 0010846 340.5045 19.5770 15.12828150 11996 |
Live tracking and technical data element details for LEMUR-2-JENNIFERSONG (NORAD 47525). LEMUR-2-JENNIFERSONG can be tracked NOW for your location showing map with azimuth and elevation plus other details from your city location.
Track the satellite on the map from your city or location and see movement details for azimuth, elevation, latitude, longitude, range, height, and movement on the map or in text.
IsCatalogInMostPopularTable: catalog: 47525, numindb: 12
Update: records affected: 1
GetName: 47525 LEMUR-2-JENNIFERSONG
Hit Count: updated at: Tue, 13 Apr 2021 04:55:44 GMT